{"data":{"norad_id":63250,"epoch":"2026-09-22T22:08:14.733600Z","epoch_age_seconds":99587,"freshness":"FRESH","line1":"1 63250U 25052AS  26265.92239275  .00003500  00000+0  30233-3 0  9991","line2":"2 63250  97.6770 156.5496 0002279 189.6291 170.4888 14.97865139 83297","mean_motion":14.97865139,"eccentricity":0.0002279,"inclination_deg":97.677,"raan_deg":156.5496,"arg_perigee_deg":189.6291,"mean_anomaly_deg":170.4888,"bstar":0.00030233,"rev_number":8329,"period_min":96.1368258401,"perigee_km":571.90953035039,"apogee_km":575.07808367223,"semimajor_km":6951.6308070113,"source":"CELESTRAK","updated_at":"2026-09-23T09:00:21.937302Z"}}